Vorticity
nan nan nan nan nan nan nan nan nan nan nan nan nan nan nan nan nan nan nan nan nan nan nan nan nan nan nan nan nan nan nan nan nan nan nan nan nan nan nan nan nan nan nan nan nan nan nan
nan 5 6 6 8 6 4 6 7 6 5 6 7 7 7 5 6 7 7 7 7 7 6 8 10 16 14 9 9 6 5 8 8 9 7 9 7 10 8 7 7 5 7 7 12 14 nan
nan 9 8 8 9 8 5 5 7 7 6 6 7 8 6 4 6 6 7 8 8 8 7 10 13 13 10 9 6 4 8 7 5 7 7 5 6 8 8 8 8 9 7 15 12 9 nan
nan 12 13 14 10 9 6 5 6 7 6 5 6 6 5 5 6 7 7 8 9 10 12 11 12 12 9 7 8 9 10 8 6 5 6 6 9 8 7 6 10 12 5 6 7 7 nan
nan 6 8 13 17 14 8 5 6 5 5 6 6 6 5 5 6 7 8 9 13 17 13 9 10 10 8 9 9 9 8 7 9 8 6 7 9 8 8 10 8 9 7 2 3 11 nan
nan 5 4 3 7 17 20 7 6 5 5 6 7 6 5 5 6 7 13 23 19 13 13 9 7 7 11 9 9 6 7 7 7 9 10 8 10 7 7 10 7 4 8 7 5 -2 nan
nan 9 7 2 3 4 14 18 12 6 6 5 8 9 4 5 6 10 18 19 14 11 10 9 8 8 9 8 7 7 6 9 9 8 8 8 7 8 7 6 6 8 6 4 5 5 nan
nan 7 8 8 4 3 3 10 18 17 6 6 8 8 4 4 5 17 17 12 11 5 4 12 9 8 9 8 8 9 7 9 8 6 6 13 9 8 8 6 7 5 6 10 11 11 nan
nan 6 7 8 8 7 4 7 9 16 16 7 9 7 5 4 15 17 12 6 5 11 14 8 11 9 11 7 10 11 6 7 7 7 11 7 3 9 10 6 10 12 9 9 4 11 nan
nan 8 9 8 8 8 6 4 8 8 14 14 10 6 4 14 15 10 7 6 8 9 11 10 11 9 9 6 10 10 8 7 10 8 12 7 10 7 6 10 10 8 12 4 2 9 nan
nan 8 10 10 8 9 7 5 6 9 9 14 13 8 6 13 8 8 6 7 12 9 5 15 9 8 9 10 8 6 9 10 8 7 10 9 11 7 9 10 8 6 4 7 14 11 nan
nan 12 8 12 12 8 8 8 5 10 10 12 15 9 6 6 9 6 7 11 11 11 8 10 10 9 7 9 7 8 7 8 8 11 10 8 7 12 10 9 5 11 10 12 18 14 nan
nan 12 13 13 14 11 7 9 8 12 13 9 15 15 2 5 9 8 11 11 12 6 8 12 11 9 8 12 8 8 6 7 5 7 9 16 11 11 9 6 9 9 11 12 6 12 nan
nan 16 23 18 13 12 8 7 8 11 13 10 23 13 3 6 7 11 10 11 8 5 9 10 11 10 10 8 10 8 4 11 11 6 9 6 11 17 7 9 8 8 10 6 5 5 nan
nan 13 20 18 15 12 8 10 9 12 12 19 15 5 10 12 10 7 9 10 9 6 6 11 11 9 9 8 11 12 8 9 15 11 5 3 10 9 10 11 6 9 10 9 8 7 nan
nan 12 11 11 12 11 11 12 11 13 16 16 4 9 10 12 9 8 9 8 9 3 4 8 15 9 8 12 9 7 7 10 12 8 6 6 13 9 10 9 10 11 4 7 11 11 nan
nan 13 14 14 13 14 15 11 11 15 20 9 5 7 10 9 5 11 11 8 6 5 10 10 7 6 9 10 9 7 7 9 13 12 6 9 9 5 11 9 7 3 8 10 11 9 nan
nan 10 11 14 17 18 15 11 10 16 18 7 9 8 9 11 7 8 10 6 5 11 8 10 11 10 5 6 11 11 11 10 11 10 7 9 5 13 7 9 12 9 10 7 4 10 nan
nan 9 11 11 13 18 17 13 10 19 15 4 9 8 9 11 13 8 9 11 9 6 7 10 11 12 9 6 9 10 10 14 11 6 7 10 6 5 9 14 12 8 7 2 6 12 nan
nan 7 10 11 9 11 15 17 15 10 12 15 10 10 9 8 8 10 13 12 12 10 10 12 8 5 7 10 10 5 7 12 12 9 9 6 11 10 5 -0 -0 3 4 4 6 -3 nan
nan 9 8 8 7 7 7 8 12 15 16 15 9 9 11 12 9 9 3 6 8 7 8 9 16 12 8 7 9 10 6 8 11 15 13 7 6 8 8 6 6 8 5 11 10 5 nan
nan 10 9 8 8 6 6 6 5 12 22 15 10 11 8 7 17 16 7 10 7 8 8 6 6 5 10 9 9 10 10 11 4 6 9 9 11 11 11 13 9 13 20 23 16 17 nan
nan 6 9 10 8 8 7 7 6 13 20 12 10 11 12 12 11 11 14 13 12 11 11 10 7 9 8 9 8 7 7 8 5 1 8 8 9 9 9 10 12 19 21 16 15 15 nan
nan 6 7 7 8 8 8 7 7 11 15 14 9 9 10 11 10 6 6 9 12 9 7 11 9 9 8 11 10 10 14 13 12 13 10 8 7 5 6 12 14 5 13 17 10 6 nan
nan 6 5 5 5 5 6 7 8 8 11 14 10 11 10 10 8 8 10 7 9 13 12 12 9 9 9 8 10 11 12 18 20 19 19 15 3 6 14 4 4 14 20 16 11 11 nan
nan 6 7 7 5 4 5 6 7 8 11 12 10 11 11 12 10 6 9 12 13 12 15 13 11 12 15 12 9 9 6 9 10 14 18 21 16 5 5 8 11 11 8 12 8 13 nan
nan 9 8 7 7 8 8 6 5 5 11 12 10 10 11 10 9 9 8 9 9 10 10 11 17 16 13 9 10 14 9 8 11 6 6 9 18 15 4 6 6 14 12 7 7 12 nan
nan 9 9 10 9 10 9 8 9 7 7 10 14 10 9 9 13 11 6 5 5 7 4 6 10 13 12 11 11 14 14 13 11 6 9 6 8 13 11 9 15 12 11 9 7 10 nan
nan nan nan nan nan nan nan nan nan nan nan nan nan nan nan nan nan nan nan nan nan nan nan nan nan nan nan nan nan nan nan nan nan nan nan nan nan nan nan nan nan nan nan nan nan nan nan
CAPE
0 0 1 4 8 8 6 1 0 6 9 2 7 9 9 11 11 9 8 4 4 3 6 4 3 1 0 0 0 0 0 0 0 0 0 0 0 0 0 0 0 0 0 0 0 0 0
8 7 1 15 21 1 0 0 0 0 0 4 6 6 7 4 6 6 7 6 6 5 2 2 3 0 0 0 0 0 0 0 0 0 0 0 0 0 0 0 0 0 0 0 0 0 0
7 4 8 14 14 9 0 0 0 2 3 0 0 3 0 0 0 6 6 6 5 5 4 3 4 0 0 0 0 0 0 0 0 0 0 0 0 0 0 0 0 0 0 0 0 0 0
37 56 66 51 50 24 2 0 0 0 0 0 0 0 0 0 0 0 2 4 4 3 2 1 0 0 0 0 0 0 0 0 0 0 0 0 0 0 0 0 0 0 0 0 0 0 0
0 3 4 43 64 59 19 4 0 0 0 0 0 0 0 0 0 0 0 1 0 1 0 0 0 0 0 0 0 0 0 0 0 0 0 0 0 0 0 0 0 0 0 0 0 0 0
4 4 7 8 5 28 50 19 0 0 0 0 0 0 0 0 0 0 0 0 0 0 0 0 0 0 0 0 0 0 0 0 0 0 0 0 0 0 0 0 0 0 0 0 0 0 0
1 6 3 7 9 4 21 65 44 5 0 0 5 0 0 0 0 0 0 0 0 0 0 0 0 0 0 0 0 0 0 0 0 0 0 0 0 0 0 0 0 0 0 0 0 0 0
0 1 6 4 5 3 5 10 48 46 29 5 0 0 0 0 0 0 0 0 0 0 0 0 0 0 0 0 0 0 0 0 0 0 0 0 0 0 0 0 0 0 0 0 0 0 0
4 6 3 3 6 3 7 6 9 45 68 34 1 0 0 0 0 0 0 0 0 0 0 0 0 0 0 0 0 0 0 0 0 0 0 0 0 0 0 0 0 0 0 0 0 0 0
11 13 10 10 7 8 6 12 10 4 26 48 12 0 0 0 0 0 0 0 0 0 0 0 0 0 0 0 0 0 0 0 0 0 0 0 0 0 0 0 0 0 0 0 0 0 0
17 25 22 16 16 14 4 10 12 20 27 14 15 0 0 0 0 0 0 0 0 0 0 0 0 0 0 0 0 0 0 0 0 0 0 0 0 0 0 0 0 0 0 0 0 0 0
18 20 21 11 29 16 15 10 13 32 43 2 34 7 0 0 0 0 0 0 0 0 0 0 0 0 0 0 0 0 0 0 0 0 0 0 0 0 0 0 0 0 0 0 0 0 0
29 7 10 21 31 13 8 6 24 52 66 40 9 6 0 0 0 0 0 0 0 0 0 0 0 0 0 0 0 0 0 0 0 0 0 0 0 0 0 0 0 0 0 0 0 0 0
25 30 23 23 7 27 4 0 26 60 67 54 34 0 0 0 0 0 0 0 0 0 0 0 0 0 0 0 0 0 0 0 0 0 0 0 0 0 0 0 0 0 0 0 0 0 0
31 11 13 1 2 39 3 1 10 71 64 52 43 0 0 0 0 0 0 0 0 0 0 0 0 0 0 0 0 0 0 0 0 0 0 0 0 0 0 0 0 0 0 0 3 0 0
47 30 24 5 4 12 10 28 42 66 55 61 1 7 1 0 0 0 0 0 0 0 0 0 0 0 0 0 0 0 0 0 0 0 0 0 0 0 0 0 0 0 0 0 0 0 0
43 47 46 34 25 34 31 25 53 61 61 38 12 42 0 0 0 0 0 0 0 0 0 0 0 0 0 0 0 0 0 0 0 0 0 0 0 0 0 0 0 0 0 0 0 0 3
34 40 38 46 57 33 42 54 59 53 58 10 23 39 0 1 4 0 4 0 2 1 0 0 0 0 0 0 0 0 0 0 0 0 0 0 0 0 0 0 0 0 0 0 0 0 0
2 46 50 48 45 65 59 39 68 64 85 8 25 22 0 8 6 2 4 6 6 1 0 0 0 0 0 0 0 0 0 0 0 0 0 0 0 0 0 0 0 0 0 0 0 0 0
0 15 59 57 58 67 76 64 60 73 62 30 14 4 6 12 0 3 4 4 6 11 6 0 5 4 1 0 0 0 0 0 0 0 3 0 0 0 0 0 0 0 0 0 0 0 0
1 2 21 36 33 22 21 22 14 44 54 19 12 12 8 3 12 13 5 3 4 16 9 1 0 10 2 0 0 0 0 0 0 0 0 0 0 0 0 0 0 0 0 0 0 0 0
7 0 0 5 13 4 0 0 0 0 37 0 16 18 4 3 5 0 2 0 1 0 1 1 3 8 9 24 2 14 0 0 0 0 0 0 0 0 0 0 0 0 0 0 0 0 0
16 33 30 1 1 6 0 0 0 0 0 8 1 0 28 3 1 44 34 23 1 9 0 0 11 17 3 0 0 0 0 0 0 0 0 9 0 0 0 0 0 0 0 0 0 0 0
2 4 0 13 19 16 8 0 1 0 0 0 3 5 12 0 12 4 5 4 9 27 75 0 9 4 0 1 1 0 0 0 0 0 0 0 0 0 0 0 0 0 0 0 0 0 0
1 0 0 0 0 0 0 3 5 2 0 0 0 12 32 5 0 0 0 0 0 0 0 0 0 0 0 0 6 2 0 0 0 0 0 0 0 0 0 0 0 0 0 0 0 0 0
49 42 18 4 1 0 0 0 2 15 10 0 0 0 13 25 0 0 0 0 0 0 0 0 0 0 0 0 3 1 1 4 0 0 0 0 0 0 0 0 0 0 0 0 0 0 0
67 61 67 60 52 42 11 4 0 0 2 1 0 0 9 7 0 0 0 0 0 0 0 0 0 0 0 0 6 15 2 14 11 0 0 0 0 0 1 0 0 0 0 0 0 0 0
59 54 53 56 44 57 34 29 29 7 0 0 0 0 26 9 0 0 0 0 0 0 1 0 0 0 4 24 16 1 0 0 0 0 0 0 0 0 0 0 0 0 0 0 0 0 0
57 56 67 55 50 59 71 64 58 68 68 16 0 0 1 21 1 0 0 0 0 4 0 0 1 0 28 56 0 0 0 0 0 0 0 0 0 0 0 0 0 0 0 0 0 0 0